Location: Middle Street
(51.7167°N, 0.0333°E)
Time: 23:36:37
(UTC+00:00)

Cosmos 1455 - Pass Details

Date: 20 January 2021
Orbit: 499 x 520 km, 82.5° (Epoch: 01 March)

Event Time Altitude Azimuth Distance (km) Brightness Sun altitude
Rises 18:54:16 0° 344° (NNW) 2,629 5.9 -22.1°
Reaches altitude 10° 18:56:26 10° 339° (NNW) 1,742 5.1 -22.5°
Maximum altitude 19:00:06 47° 265° (W) 692 3.2 -23.0°
Drops below altitude 10° 19:03:46 10° 192° (SSW) 1,739 5.0 -23.6°
Sets 19:05:57 0° 186° (S) 2,624 5.9 -23.9°
